When you browse on this site, cookies collect data to enhance your experience and personalize the content and advertising you see.
Visit our Privacy Policy to learn more. By continuing to use the site, you agree to this use of cookies and data.
  • In United Kingdom
  • List of Countries
  • For 7 days
  • Water Temperature
  • Satellite Maps
  • Weather Map
  • Weather Widgets
  • user-avatar
    Login

    Hourly Weather Lourdes

    Today, 18 February, Monday

    Time Temperature Precipitation Wind Pressure Humidity
    00:00 +5°C° 0 mm 3 mps 698 mmHg 39%
    01:00 +5°C° 0 mm 3 mps 698 mmHg 39%
    02:00 +5°C° 0 mm 3 mps 698 mmHg 40%
    03:00 +5°C° 0 mm 3 mps 697 mmHg 40%
    04:00 +4°C° 0 mm 3 mps 697 mmHg 41%
    05:00 +5°C° 0 mm 2 mps 697 mmHg 42%
    06:00 +5°C° 0 mm 2 mps 697 mmHg 43%
    07:00 +7°C° 0 mm 2 mps 698 mmHg 44%
    08:00 +8°C° 0 mm 2 mps 698 mmHg 44%
    09:00 +10°C° 0 mm 1 mps 698 mmHg 45%
    10:00 +12°C° 0 mm 1 mps 698 mmHg 43%
    11:00 +13°C° 0 mm 1 mps 699 mmHg 40%
    12:00 +15°C° 0 mm 1 mps 699 mmHg 38%
    13:00 +15°C° 0 mm 1 mps 698 mmHg 42%
    14:00 +14°C° 0 mm 2 mps 698 mmHg 45%
    15:00 +14°C° 0 mm 2 mps 698 mmHg 49%
    16:00 +12°C° 0 mm 1 mps 697 mmHg 58%
    17:00 +10°C° 0 mm 1 mps 697 mmHg 68%
    18:00 +7°C° 0 mm 1 mps 697 mmHg 78%
    19:00 +7°C° 0 mm 1 mps 697 mmHg 72%
    20:00 +7°C° 0 mm 1 mps 698 mmHg 66%
    21:00 +6°C° 0 mm 1 mps 698 mmHg 60%
    22:00 +6°C° 0 mm 1 mps 698 mmHg 56%
    23:00 +6°C° 0 mm 1 mps 698 mmHg 53%

    Tomorrow, 19 February, Tuesday

    Time Temperature Precipitation Wind Pressure Humidity
    00:00 +6°C° 0 mm 1 mps 698 mmHg 49%
    01:00 +5°C° 0 mm 1 mps 698 mmHg 49%
    02:00 +5°C° 0 mm 1 mps 698 mmHg 49%
    03:00 +5°C° 0 mm 1 mps 698 mmHg 48%
    04:00 +5°C° 0 mm 1 mps 698 mmHg 49%
    05:00 +4°C° 0 mm 1 mps 698 mmHg 51%
    06:00 +4°C° 0 mm 1 mps 698 mmHg 52%
    07:00 +6°C° 0 mm 1 mps 699 mmHg 51%
    08:00 +6°C° 0 mm 0 mps 699 mmHg 50%
    09:00 +8°C° 0 mm 0 mps 700 mmHg 49%
    10:00 +9°C° 0 mm 0 mps 700 mmHg 49%
    11:00 +11°C° 0 mm 1 mps 700 mmHg 48%
    12:00 +13°C° 0 mm 1 mps 700 mmHg 48%
    13:00 +13°C° 0 mm 1 mps 699 mmHg 50%
    14:00 +13°C° 0 mm 1 mps 699 mmHg 53%
    15:00 +13°C° 0 mm 2 mps 699 mmHg 55%
    16:00 +11°C° 0 mm 1 mps 698 mmHg 66%
    17:00 +9°C° 0 mm 1 mps 698 mmHg 76%
    18:00 +7°C° 0 mm 1 mps 698 mmHg 87%
    19:00 +7°C° 0 mm 1 mps 698 mmHg 82%
    20:00 +7°C° 0 mm 1 mps 699 mmHg 78%
    21:00 +5°C° 0 mm 2 mps 699 mmHg 74%
    22:00 +5°C° 0 mm 2 mps 699 mmHg 70%
    23:00 +5°C° 0 mm 2 mps 699 mmHg 67%

    Day after tomorrow, 20 February, Wednesday

    Time Temperature Precipitation Wind Pressure Humidity
    00:00 +5°C° 0 mm 2 mps 699 mmHg 63%
    01:00 +5°C° 0 mm 2 mps 699 mmHg 61%
    02:00 +5°C° 0 mm 2 mps 699 mmHg 60%
    03:00 +5°C° 0 mm 2 mps 699 mmHg 58%
    04:00 +5°C° 0 mm 2 mps 699 mmHg 58%
    05:00 +5°C° 0 mm 2 mps 699 mmHg 57%
    06:00 +5°C° 0 mm 2 mps 699 mmHg 56%
    07:00 +8°C° 0 mm 1 mps 700 mmHg 55%
    08:00 +9°C° 0 mm 1 mps 700 mmHg 53%
    09:00 +11°C° 0 mm 1 mps 701 mmHg 52%
    10:00 +12°C° 0 mm 1 mps 701 mmHg 48%
    11:00 +14°C° 0 mm 1 mps 701 mmHg 45%
    12:00 +15°C° 0 mm 1 mps 702 mmHg 42%
    13:00 +15°C° 0 mm 1 mps 701 mmHg 44%
    14:00 +15°C° 0 mm 1 mps 701 mmHg 47%
    15:00 +15°C° 0 mm 1 mps 701 mmHg 49%
    16:00 +13°C° 0 mm 1 mps 701 mmHg 58%
    17:00 +11°C° 0 mm 1 mps 701 mmHg 67%
    18:00 +9°C° 0 mm 1 mps 700 mmHg 75%
    19:00 +8°C° 0 mm 1 mps 701 mmHg 74%
    20:00 +8°C° 0 mm 1 mps 701 mmHg 73%
    21:00 +7°C° 0 mm 2 mps 702 mmHg 71%
    22:00 +7°C° 0 mm 2 mps 702 mmHg 71%
    23:00 +7°C° 0 mm 2 mps 702 mmHg 70%

    21 February, Thursday

    Time Temperature Precipitation Wind Pressure Humidity
    00:00 +7°C° 0 mm 2 mps 702 mmHg 69%
    01:00 +7°C° 0 mm 2 mps 702 mmHg 69%
    02:00 +7°C° 0 mm 2 mps 702 mmHg 68%
    03:00 +7°C° 0 mm 2 mps 702 mmHg 68%
    04:00 +7°C° 0 mm 2 mps 702 mmHg 67%
    05:00 +7°C° 0 mm 2 mps 702 mmHg 67%
    06:00 +7°C° 0 mm 2 mps 702 mmHg 66%
    07:00 +9°C° 0 mm 1 mps 703 mmHg 63%
    08:00 +11°C° 0 mm 1 mps 703 mmHg 60%
    09:00 +12°C° 0 mm 1 mps 704 mmHg 57%
    10:00 +14°C° 0 mm 1 mps 704 mmHg 52%
    11:00 +15°C° 0 mm 1 mps 704 mmHg 48%
    12:00 +18°C° 0 mm 1 mps 704 mmHg 43%
    13:00 +18°C° 0 mm 1 mps 704 mmHg 45%
    14:00 +16°C° 0 mm 1 mps 704 mmHg 46%
    15:00 +16°C° 0 mm 2 mps 704 mmHg 47%
    16:00 +14°C° 0 mm 1 mps 703 mmHg 55%
    17:00 +12°C° 0 mm 1 mps 703 mmHg 64%
    18:00 +10°C° 0 mm 1 mps 703 mmHg 72%
    19:00 +10°C° 0 mm 1 mps 704 mmHg 70%
    20:00 +9°C° 0 mm 2 mps 704 mmHg 69%
    21:00 +8°C° 0 mm 2 mps 704 mmHg 68%
    22:00 +8°C° 0 mm 2 mps 704 mmHg 67%
    23:00 +8°C° 0 mm 2 mps 704 mmHg 66%

    22 February, Friday

    Time Temperature Precipitation Wind Pressure Humidity
    00:00 +8°C° 0 mm 2 mps 704 mmHg 66%
    01:00 +8°C° 0 mm 2 mps 704 mmHg 64%
    02:00 +8°C° 0 mm 2 mps 704 mmHg 62%
    03:00 +8°C° 0 mm 2 mps 704 mmHg 60%
    04:00 +8°C° 0 mm 2 mps 704 mmHg 54%
    05:00 +7°C° 0 mm 2 mps 704 mmHg 48%
    06:00 +7°C° 0 mm 2 mps 704 mmHg 42%
    07:00 +10°C° 0 mm 1 mps 705 mmHg 40%
    08:00 +12°C° 0 mm 1 mps 705 mmHg 39%
    09:00 +12°C° 0 mm 0 mps 705 mmHg 37%
    10:00 +15°C° 0 mm 1 mps 705 mmHg 36%
    11:00 +16°C° 0 mm 1 mps 705 mmHg 35%
    12:00 +18°C° 0 mm 1 mps 705 mmHg 33%
    13:00 +17°C° 0 mm 2 mps 705 mmHg 36%
    14:00 +17°C° 0 mm 2 mps 705 mmHg 39%
    15:00 +17°C° 0 mm 2 mps 704 mmHg 43%
    16:00 +15°C° 0 mm 2 mps 704 mmHg 50%
    17:00 +13°C° 0 mm 2 mps 704 mmHg 58%
    18:00 +10°C° 0 mm 2 mps 704 mmHg 65%
    19:00 +10°C° 0 mm 2 mps 704 mmHg 63%
    20:00 +9°C° 0 mm 2 mps 704 mmHg 61%
    21:00 +9°C° 0 mm 2 mps 705 mmHg 59%
    22:00 +9°C° 0 mm 2 mps 705 mmHg 59%
    23:00 +9°C° 0 mm 2 mps 705 mmHg 59%

    23 February, Saturday

    Time Temperature Precipitation Wind Pressure Humidity
    00:00 +9°C° 0 mm 2 mps 705 mmHg 59%
    01:00 +8°C° 0 mm 2 mps 705 mmHg 60%
    02:00 +8°C° 0 mm 2 mps 705 mmHg 60%
    03:00 +8°C° 0 mm 2 mps 705 mmHg 61%
    04:00 +8°C° 0 mm 2 mps 705 mmHg 60%
    05:00 +8°C° 0 mm 2 mps 705 mmHg 59%
    06:00 +8°C° 0 mm 2 mps 705 mmHg 58%
    07:00 +10°C° 0 mm 2 mps 706 mmHg 55%
    08:00 +12°C° 0 mm 1 mps 707 mmHg 52%
    09:00 +14°C° 0 mm 1 mps 707 mmHg 49%
    10:00 +15°C° 0 mm 1 mps 708 mmHg 46%
    11:00 +18°C° 0 mm 1 mps 708 mmHg 44%
    12:00 +19°C° 0 mm 1 mps 708 mmHg 41%
    13:00 +19°C° 0 mm 1 mps 708 mmHg 44%
    14:00 +19°C° 0 mm 1 mps 707 mmHg 47%
    15:00 +17°C° 0 mm 2 mps 707 mmHg 50%
    16:00 +15°C° 0 mm 1 mps 707 mmHg 59%
    17:00 +13°C° 0 mm 1 mps 707 mmHg 68%
    18:00 +11°C° 0 mm 1 mps 706 mmHg 77%
    19:00 +11°C° 0 mm 1 mps 707 mmHg 73%
    20:00 +10°C° 0 mm 1 mps 707 mmHg 69%
    21:00 +9°C° 0 mm 2 mps 707 mmHg 65%
    22:00 +9°C° 0 mm 2 mps 707 mmHg 63%
    23:00 +9°C° 0 mm 2 mps 707 mmHg 62%
    Show more